Glens Falls, NY

1:42 AM EST on December 07, 2019 (GMT -0500)
Bennett Memorial

Weather History for KGFL - October, 2019

Change the Weather History Date:

Thursday, October 3, 2019

  Actual Average Record
Temperature  
Mean Temperature 46 °F 51 °F  
Max Temperature 50 °F 63 °F 82 °F (1898)
Min Temperature 41 °F 39 °F 28 °F (2003)
Degree Days  
Heating Degree Days 19 14  
Month to date heating degree days 28 40  
Since 1 July heating degree days 250 325  
Cooling Degree Days 0 0  
Month to date cooling degree days 0 0  
Year to date cooling degree days 416 351  
Moisture  
Dew Point 42 °F    
Average Humidity 83    
Maximum Humidity 100    
Minimum Humidity 65    
Precipitation  
Precipitation 0.19 in 0.11 in 1.04 in (1941)
Month to date precipitation 0.38 0.35  
Year to date precipitation 31.23 29.54  
Sea Level Pressure  
Sea Level Pressure 30.10 in    
Wind  
Wind Speed 4 mph (SSE)    
Max Wind Speed 12 mph    
Max Gust Speed 15 mph    
Visibility 7 miles    
Events Rain    
T = Trace of Precipitation, MM = Missing Value Source: NWS Daily Summary

Daily Weather History Graph

Daily Weather History Graph

Search for Another Location

Airport or City:

Astronomy

Oct. 03, 2019 Rise Set
Actual Time 6:53 AM EDT 6:32 PM EDT
Civil Twilight 6:25 AM EDT 7:00 PM EDT
Nautical Twilight 5:52 AM EDT 7:33 PM EDT
Astronomical Twilight 5:18 AM EDT 8:07 PM EDT
Moon 12:30 PM EDT (10/3) 10:00 PM EDT (10/3)
Length of Visible Light 12h 35m
Length of Day
11h 38m
Waxing Crescent, 29% of the Moon is Illuminated
Oct 3
Waxing Crescent
Oct 5
First Quarter
Oct 13
Full
Oct 21
Last Quarter
Oct 27
New

Hourly Weather History & Observations

Time (EDT) Temp. Windchill Dew Point Humidity Pressure Visibility Wind Dir Wind Speed Gust Speed Precip Events Conditions
12:53 AM 46.0 °F 39.9 °F 35.1 °F 66% 30.15 in 10.0 mi North 13.8 mph - N/A   Clear
1:53 AM 44.1 °F 40.8 °F 35.1 °F 71% 30.17 in 10.0 mi NNE 5.8 mph - N/A   Clear
2:53 AM 44.1 °F 39.5 °F 35.1 °F 71% 30.17 in 10.0 mi NNE 8.1 mph - N/A   Clear
3:53 AM 44.1 °F 39.0 °F 35.1 °F 71% 30.18 in 10.0 mi NNE 9.2 mph - N/A   Clear
4:53 AM 43.0 °F 39.5 °F 37.0 °F 80% 30.17 in 10.0 mi ENE 5.8 mph - N/A   Clear
5:53 AM 42.1 °F - 37.9 °F 85% 30.20 in 10.0 mi Calm Calm - N/A   Clear
6:53 AM 42.1 °F - 37.0 °F 82% 30.22 in 10.0 mi Calm Calm - N/A   Clear
7:53 AM 43.0 °F 41.3 °F 37.9 °F 82% 30.22 in 10.0 mi ESE 3.5 mph - N/A   Clear
8:53 AM 44.1 °F 40.8 °F 37.9 °F 79% 30.22 in 10.0 mi NE 5.8 mph - N/A   Overcast
9:53 AM 46.0 °F 41.9 °F 37.0 °F 71% 30.22 in 10.0 mi NE 8.1 mph - N/A   Overcast
10:53 AM 46.9 °F - 37.0 °F 68% 30.21 in 10.0 mi NE 4.6 mph - N/A   Overcast
11:53 AM 48.9 °F - 37.9 °F 66% 30.19 in 10.0 mi NNE 3.5 mph - 0.00 in Rain Light Rain
12:53 PM 48.9 °F - 39.0 °F 69% 30.17 in 10.0 mi Calm Calm - 0.00 in Rain Light Rain
1:53 PM 48.9 °F - 41.0 °F 74% 30.15 in 10.0 mi Calm Calm - 0.00 in   Overcast
2:05 PM 48.9 °F - 39.9 °F 71% 30.13 in 10.0 mi Calm Calm - N/A   Overcast
2:26 PM 48.9 °F - 39.9 °F 71% 30.12 in 10.0 mi Calm Calm - N/A   Overcast
2:53 PM 50.0 °F - 42.1 °F 74% 30.12 in 10.0 mi Calm Calm - N/A   Overcast
3:53 PM 48.9 °F - 43.0 °F 80% 30.09 in 10.0 mi Calm Calm - 0.00 in Rain Light Rain
4:12 PM 48.9 °F - 43.0 °F 80% 30.08 in 4.0 mi Calm Calm - 0.02 in Rain Rain
4:42 PM 48.9 °F - 44.1 °F 83% 30.07 in 5.0 mi Calm Calm - 0.03 in Rain Light Rain
4:53 PM 48.9 °F - 44.1 °F 83% 30.08 in 7.0 mi Calm Calm - 0.03 in   Overcast
5:22 PM 48.0 °F - 45.0 °F 89% 30.07 in 6.0 mi South 3.5 mph - 0.00 in Rain Light Rain
5:28 PM 48.0 °F - 45.0 °F 89% 30.07 in 4.0 mi Calm Calm - 0.00 in Rain Light Rain
5:39 PM 48.0 °F - 45.0 °F 89% 30.07 in 2.5 mi WSW 3.5 mph - 0.02 in Rain Light Rain
5:49 PM 46.4 °F - 44.6 °F 93% 30.06 in 2.5 mi Calm Calm - 0.03 in Rain Light Rain
5:53 PM 46.9 °F - 45.0 °F 93% 30.08 in 2.5 mi SW 3.5 mph - 0.03 in Rain Light Rain
5:58 PM 46.9 °F - 45.0 °F 93% 30.06 in 3.0 mi South 4.6 mph - 0.00 in Rain Light Rain
6:05 PM 46.9 °F - 46.0 °F 97% 30.06 in 2.5 mi South 3.5 mph - 0.01 in Rain Light Rain
6:08 PM 46.9 °F - 46.0 °F 97% 30.06 in 3.0 mi South 5.8 mph - 0.01 in Rain Light Rain
6:25 PM 46.9 °F - 46.0 °F 97% 30.05 in 2.5 mi SSE 4.6 mph - 0.02 in Rain Light Rain
6:34 PM 46.9 °F - 46.0 °F 97% 30.05 in 4.0 mi SSE 4.6 mph - 0.03 in Rain Light Rain
6:45 PM 46.9 °F - 46.0 °F 97% 30.04 in 8.0 mi SSE 5.8 mph - 0.03 in   Overcast
6:53 PM 46.9 °F - 46.0 °F 97% 30.06 in 7.0 mi South 5.8 mph - 0.03 in Rain Light Rain
7:22 PM 46.9 °F - 45.0 °F 93% 30.04 in 5.0 mi South 6.9 mph - 0.01 in Rain Light Rain
7:29 PM 46.9 °F - 45.0 °F 93% 30.03 in 6.0 mi SSE 8.1 mph - 0.01 in Rain Light Rain
7:53 PM 46.9 °F - 46.0 °F 97% 30.05 in 5.0 mi South 5.8 mph - 0.02 in Rain Light Rain
8:43 PM 46.9 °F - 45.0 °F 93% 30.01 in 6.0 mi South 8.1 mph - 0.00 in   Overcast
8:53 PM 46.9 °F - 45.0 °F 93% 30.03 in 6.0 mi South 5.8 mph - 0.01 in   Overcast
9:53 PM 46.9 °F - 46.0 °F 97% 30.00 in 7.0 mi South 4.6 mph - 0.01 in Rain Light Rain
10:01 PM 46.9 °F - 46.0 °F 97% 29.98 in 4.0 mi South 4.6 mph - 0.01 in Rain Light Rain
10:53 PM 46.9 °F - 46.0 °F 97% 29.98 in 4.0 mi South 3.5 mph - 0.04 in Rain Light Rain
11:53 PM 46.9 °F - 46.0 °F 97% 29.95 in 5.0 mi South 5.8 mph - 0.01 in Rain Light Rain